This is the latest recevied weather packets stored in our database for station/object NI4CE-11. If no packets are shown the sender has not sent any weather packets the latest 10 day(s).
| Time | Temp. | Humidity | Pressure | Rain* | Wind** | Luminosity | Snow |
|---|---|---|---|---|---|---|---|
| 1777455923 | 20° C | 100% | 1016.2 hPa | 0 mm | - | - | - |
| 1777455623 | 20° C | 100% | 1016.2 hPa | 0 mm | - | - | - |
| 1777455323 | 20° C | 100% | 1016.2 hPa | 0 mm | - | - | - |
| 1777455023 | 20.56° C | 100% | 1016 hPa | 0 mm | - | - | - |
| 1777454762 | 20° C | 100% | 1016.1 hPa | 0 mm | - | - | - |
| 1777454723 | 20.56° C | 100% | 1016.1 hPa | 0 mm | - | - | - |
| 1777454423 | 20° C | 100% | 1016.1 hPa | 0 mm | - | - | - |
| 1777454334 | 20° C | 100% | 1016.3 hPa | 0 mm | - | - | - |
| 1777454123 | 21.11° C | 100% | 1016.1 hPa | 0 mm | - | - | - |
| 1777453823 | 20° C | 100% | 1016.1 hPa | 0 mm | - | - | - |
| 1777453523 | 19.44° C | 100% | 1016.2 hPa | 0 mm | - | - | - |
| 1777453255 | 20° C | 100% | 1016.3 hPa | 0 mm | - | - | - |
| 1777453223 | 20° C | 100% | 1016.3 hPa | 0 mm | - | - | - |
| 1777453158 | 19.44° C | 100% | 1016.4 hPa | 0 mm | - | - | - |
| 1777452923 | 19.44° C | 100% | 1016.4 hPa | 0 mm | - | - | - |
| 1777452917 | 19.44° C | 100% | 1016.4 hPa | 0 mm | - | - | - |
| 1777452623 | 19.44° C | 100% | 1016.4 hPa | 0 mm | - | - | - |
| 1777452323 | 19.44° C | 100% | 1016.4 hPa | 0 mm | - | - | - |
| 1777452055 | 18.89° C | 100% | 1016 hPa | 0 mm | - | - | - |
| 1777452023 | 20° C | 100% | 1016.4 hPa | 0 mm | - | - | - |
| 1777451723 | 19.44° C | 100% | 1016.2 hPa | 0 mm | - | - | - |
| 1777451423 | 20° C | 100% | 1016.1 hPa | 0 mm | - | - | - |
| 1777451123 | 19.44° C | 100% | 1016 hPa | 0 mm | - | - | - |
| 1777450823 | 18.89° C | 100% | 1016 hPa | 0 mm | - | - | - |
| 1777450523 | 20° C | 100% | 1016 hPa | 0 mm | - | - | - |
* Rain latest hour (hover to see other rain measurements)
** Current wind speed in m/s (hover to see current wind gust speed)